Tracking 25656 objects as of 21-May-2022
HD Live streaming from Space Station
objects crossing your sky now

ONEWEB-0211

Track ONEWEB-0211 now!
10-day predictions
ONEWEB-0211 is classified as:


NORAD ID: 48767
Int'l Code: 2021-045A
Perigee: 1,207.7 km
Apogee: 1,210.2 km
Inclination: 87.9 °
Period: 109.5 minutes
Semi major axis: 7579 km
RCS: Unknown
Launch date: May 28, 2021
Source: United Kingdom (UK)
Launch site: VOSTOCHNY COSMODROME (VOSTO)
aabbcc
Your satellite tracking list
Your tracking list is empty




NASA's NSSDC Master Catalog

Two Line Element Set (TLE):
1 48767U 21045A   22141.58335648  .00035555  00000-0  94062-1 0  9991
2 48767  87.9117 195.1500 0001651  94.1272 345.3485 13.15536972  1304
Source of the keplerian elements: AFSPC